Year,Month,Day,Hour,Minute,Value (Times are PST for temperature in C)
2018,03,23,00,00,1.70
2018,03,23,00,01,1.70
2018,03,23,00,02,1.70
2018,03,23,00,03,1.70
2018,03,23,00,04,1.70
2018,03,23,00,05,1.70
2018,03,23,00,06,1.70
2018,03,23,00,07,1.70
2018,03,23,00,08,1.70
2018,03,23,00,09,1.70
2018,03,23,00,10,1.70
2018,03,23,00,11,1.70
2018,03,23,00,12,1.70
2018,03,23,00,13,1.70
2018,03,23,00,14,1.70
2018,03,23,00,15,1.70
2018,03,23,00,16,1.70
2018,03,23,00,17,1.70
2018,03,23,00,18,1.70
2018,03,23,00,19,1.70
2018,03,23,00,20,1.60
2018,03,23,00,21,1.60
2018,03,23,00,22,1.60
2018,03,23,00,23,1.60
2018,03,23,00,24,1.60
2018,03,23,00,25,1.60
2018,03,23,00,26,1.60
2018,03,23,00,27,1.60
2018,03,23,00,28,1.60
2018,03,23,00,29,1.50
2018,03,23,00,30,1.50
2018,03,23,00,31,1.50
2018,03,23,00,32,1.50
2018,03,23,00,33,1.40
2018,03,23,00,34,1.40
2018,03,23,00,35,1.40
2018,03,23,00,36,1.40
2018,03,23,00,37,1.40
2018,03,23,00,38,1.30
2018,03,23,00,39,1.30
2018,03,23,00,40,1.30
2018,03,23,00,41,1.30
2018,03,23,00,42,1.30
2018,03,23,00,43,1.30
2018,03,23,00,44,1.30
2018,03,23,00,45,1.30
2018,03,23,00,46,1.30
2018,03,23,00,47,1.30
2018,03,23,00,48,1.30
2018,03,23,00,49,1.30
2018,03,23,00,50,1.30
2018,03,23,00,51,1.30
2018,03,23,00,52,1.30
2018,03,23,00,53,1.30
2018,03,23,00,54,1.30
2018,03,23,00,55,1.30
2018,03,23,00,56,1.30
2018,03,23,00,57,1.30
2018,03,23,00,58,1.30
2018,03,23,00,59,1.30
2018,03,23,01,00,1.30
2018,03,23,01,01,1.30
2018,03,23,01,02,1.30
2018,03,23,01,03,1.30
2018,03,23,01,04,1.30
2018,03,23,01,05,1.30
2018,03,23,01,06,1.30
2018,03,23,01,07,1.30
2018,03,23,01,08,1.30
2018,03,23,01,09,1.30
2018,03,23,01,10,1.30
2018,03,23,01,11,1.30
2018,03,23,01,12,1.30
2018,03,23,01,13,1.30
2018,03,23,01,14,1.30
2018,03,23,01,15,1.30
2018,03,23,01,16,1.30
2018,03,23,01,17,1.30
2018,03,23,01,18,1.30
2018,03,23,01,19,1.30
2018,03,23,01,20,1.40
2018,03,23,01,21,1.40
2018,03,23,01,22,1.40
2018,03,23,01,23,1.50
2018,03,23,01,24,1.50
2018,03,23,01,25,1.60
2018,03,23,01,26,1.60
2018,03,23,01,27,1.60
2018,03,23,01,28,1.60
2018,03,23,01,29,1.60
2018,03,23,01,30,1.70
2018,03,23,01,31,1.70
2018,03,23,01,32,1.70
2018,03,23,01,33,1.70
2018,03,23,01,34,1.80
2018,03,23,01,35,1.80
2018,03,23,01,36,1.80
2018,03,23,01,37,1.90
2018,03,23,01,38,1.90
2018,03,23,01,39,1.90
2018,03,23,01,40,2.00
2018,03,23,01,41,2.00
2018,03,23,01,42,2.00
2018,03,23,01,43,2.10
2018,03,23,01,44,2.10
2018,03,23,01,45,2.10
2018,03,23,01,46,2.10
2018,03,23,01,47,2.10
2018,03,23,01,48,2.20
2018,03,23,01,49,2.20
2018,03,23,01,50,2.20
2018,03,23,01,51,2.20
2018,03,23,01,52,2.20
2018,03,23,01,53,2.20
2018,03,23,01,54,2.20
2018,03,23,01,55,2.20
2018,03,23,01,56,2.20
2018,03,23,01,57,2.20
2018,03,23,01,58,2.20
2018,03,23,01,59,2.20
2018,03,23,02,00,2.20
2018,03,23,02,01,2.20
2018,03,23,02,02,2.20
2018,03,23,02,03,2.10
2018,03,23,02,04,2.10
2018,03,23,02,05,2.10
2018,03,23,02,06,2.10
2018,03,23,02,07,2.10
2018,03,23,02,08,2.10
2018,03,23,02,09,2.10
2018,03,23,02,10,2.10
2018,03,23,02,11,2.10
2018,03,23,02,12,2.10
2018,03,23,02,13,2.10
2018,03,23,02,14,2.10
2018,03,23,02,15,2.10
2018,03,23,02,16,2.10
2018,03,23,02,17,2.10
2018,03,23,02,18,2.10
2018,03,23,02,19,2.10
2018,03,23,02,20,2.10
2018,03,23,02,21,2.20
2018,03,23,02,22,2.20
2018,03,23,02,23,2.20
2018,03,23,02,24,2.20
2018,03,23,02,25,2.30
2018,03,23,02,26,2.30
2018,03,23,02,27,2.30
2018,03,23,02,28,2.30
2018,03,23,02,29,2.30
2018,03,23,02,30,2.30
2018,03,23,02,31,2.30
2018,03,23,02,32,2.30
2018,03,23,02,33,2.30
2018,03,23,02,34,2.30
2018,03,23,02,35,2.30
2018,03,23,02,36,2.40
2018,03,23,02,37,2.40
2018,03,23,02,38,2.40
2018,03,23,02,39,2.40
2018,03,23,02,40,2.40
2018,03,23,02,41,2.40
2018,03,23,02,42,2.40
2018,03,23,02,43,2.40
2018,03,23,02,44,2.40
2018,03,23,02,45,2.40
2018,03,23,02,46,2.40
2018,03,23,02,47,2.40
2018,03,23,02,48,2.40
2018,03,23,02,49,2.40
2018,03,23,02,50,2.40
2018,03,23,02,51,2.40
2018,03,23,02,52,2.40
2018,03,23,02,53,2.40
2018,03,23,02,54,2.40
2018,03,23,02,55,2.40
2018,03,23,02,56,2.40
2018,03,23,02,57,2.40
2018,03,23,02,58,2.40
2018,03,23,02,59,2.40
2018,03,23,03,00,2.40
2018,03,23,03,01,2.40
2018,03,23,03,02,2.40
2018,03,23,03,03,2.40
2018,03,23,03,04,2.40
2018,03,23,03,05,2.40
2018,03,23,03,06,2.40
2018,03,23,03,07,2.40
2018,03,23,03,08,2.40
2018,03,23,03,09,2.40
2018,03,23,03,10,2.40
2018,03,23,03,11,2.40
2018,03,23,03,12,2.40
2018,03,23,03,13,2.40
2018,03,23,03,14,2.40
2018,03,23,03,15,2.40
2018,03,23,03,16,2.40
2018,03,23,03,17,2.40
2018,03,23,03,18,2.40
2018,03,23,03,19,2.40
2018,03,23,03,20,2.40
2018,03,23,03,21,2.40
2018,03,23,03,22,2.40
2018,03,23,03,23,2.40
2018,03,23,03,24,2.40
2018,03,23,03,25,2.40
2018,03,23,03,26,2.40
2018,03,23,03,27,2.40
2018,03,23,03,28,2.40
2018,03,23,03,29,2.40
2018,03,23,03,30,2.40
2018,03,23,03,31,2.40
2018,03,23,03,32,2.50
2018,03,23,03,33,2.50
2018,03,23,03,34,2.50
2018,03,23,03,35,2.50
2018,03,23,03,36,2.50
2018,03,23,03,37,2.50
2018,03,23,03,38,2.50
2018,03,23,03,39,2.50
2018,03,23,03,40,2.50
2018,03,23,03,41,2.50
2018,03,23,03,42,2.50
2018,03,23,03,43,2.50
2018,03,23,03,44,2.50
2018,03,23,03,45,2.50
2018,03,23,03,46,2.50
2018,03,23,03,47,2.50
2018,03,23,03,48,2.50
2018,03,23,03,49,2.50
2018,03,23,03,50,2.50
2018,03,23,03,51,2.60
2018,03,23,03,52,2.60
2018,03,23,03,53,2.60
2018,03,23,03,54,2.60
2018,03,23,03,55,2.60
2018,03,23,03,56,2.60
2018,03,23,03,57,2.60
2018,03,23,03,58,2.60
2018,03,23,03,59,2.60
2018,03,23,04,00,2.60
2018,03,23,04,01,2.60
2018,03,23,04,02,2.60
2018,03,23,04,03,2.60
2018,03,23,04,04,2.60
2018,03,23,04,05,2.60
2018,03,23,04,06,2.60
2018,03,23,04,07,2.60
2018,03,23,04,08,2.60
2018,03,23,04,09,2.60
2018,03,23,04,10,2.60
2018,03,23,04,11,2.60
2018,03,23,04,12,2.60
2018,03,23,04,13,2.60
2018,03,23,04,14,2.60
2018,03,23,04,15,2.60
2018,03,23,04,16,2.60
2018,03,23,04,17,2.60
2018,03,23,04,18,2.60
2018,03,23,04,19,2.60
2018,03,23,04,20,2.60
2018,03,23,04,21,2.60
2018,03,23,04,22,2.60
2018,03,23,04,23,2.60
2018,03,23,04,24,2.60
2018,03,23,04,25,2.60
2018,03,23,04,26,2.60
2018,03,23,04,27,2.60
2018,03,23,04,28,2.60
2018,03,23,04,29,2.60
2018,03,23,04,30,2.60
2018,03,23,04,31,2.60
2018,03,23,04,32,2.60
2018,03,23,04,33,2.60
2018,03,23,04,34,2.60
2018,03,23,04,35,2.50
2018,03,23,04,36,2.50
2018,03,23,04,37,2.50
2018,03,23,04,38,2.50
2018,03,23,04,39,2.40
2018,03,23,04,40,2.40
2018,03,23,04,41,2.40
2018,03,23,04,42,2.30
2018,03,23,04,43,2.30
2018,03,23,04,44,2.30
2018,03,23,04,45,2.20
2018,03,23,04,46,2.20
2018,03,23,04,47,2.20
2018,03,23,04,48,2.10
2018,03,23,04,49,2.10
2018,03,23,04,50,2.00
2018,03,23,04,51,2.00
2018,03,23,04,52,1.90
2018,03,23,04,53,1.90
2018,03,23,04,54,1.80
2018,03,23,04,55,1.80
2018,03,23,04,56,1.80
2018,03,23,04,57,1.70
2018,03,23,04,58,1.70
2018,03,23,04,59,1.70
2018,03,23,05,00,1.60
2018,03,23,05,01,1.60
2018,03,23,05,02,1.50
2018,03,23,05,03,1.40
2018,03,23,05,04,1.30
2018,03,23,05,05,1.30
2018,03,23,05,06,1.30
2018,03,23,05,07,1.30
2018,03,23,05,08,1.30
2018,03,23,05,09,1.30
2018,03,23,05,10,1.20
2018,03,23,05,11,1.20
2018,03,23,05,12,1.10
2018,03,23,05,13,1.10
2018,03,23,05,14,1.10
2018,03,23,05,15,1.00
2018,03,23,05,16,0.90
2018,03,23,05,17,0.90
2018,03,23,05,18,0.90
2018,03,23,05,19,0.80
2018,03,23,05,20,0.80
2018,03,23,05,21,0.70
2018,03,23,05,22,0.70
2018,03,23,05,23,0.70
2018,03,23,05,24,0.60
2018,03,23,05,25,0.60
2018,03,23,05,26,0.60
2018,03,23,05,27,0.60
2018,03,23,05,28,0.50
2018,03,23,05,29,0.50
2018,03,23,05,30,0.50
2018,03,23,05,31,0.50
2018,03,23,05,32,0.40
2018,03,23,05,33,0.40
2018,03,23,05,34,0.40
2018,03,23,05,35,0.40
2018,03,23,05,36,0.40
2018,03,23,05,37,0.30
2018,03,23,05,38,0.30
2018,03,23,05,39,0.30
2018,03,23,05,40,0.30
2018,03,23,05,41,0.30
2018,03,23,05,42,0.20
2018,03,23,05,43,0.20
2018,03,23,05,44,0.20
2018,03,23,05,45,0.20
2018,03,23,05,46,0.20
2018,03,23,05,47,0.20
2018,03,23,05,48,0.20
2018,03,23,05,49,0.10
2018,03,23,05,50,0.10
2018,03,23,05,51,0.10
2018,03,23,05,52,0.10
2018,03,23,05,53,0.10
2018,03,23,05,54,0.20
2018,03,23,05,55,0.20
2018,03,23,05,56,0.20
2018,03,23,05,57,0.20
2018,03,23,05,58,0.20
2018,03,23,05,59,0.20
2018,03,23,06,00,0.20
2018,03,23,06,01,0.20
2018,03,23,06,02,0.20
2018,03,23,06,03,0.20
2018,03,23,06,04,0.20
2018,03,23,06,05,0.20
2018,03,23,06,06,0.20
2018,03,23,06,07,0.20
2018,03,23,06,08,0.20
2018,03,23,06,09,0.20
2018,03,23,06,10,0.20
2018,03,23,06,11,0.20
2018,03,23,06,12,0.20
2018,03,23,06,13,0.20
2018,03,23,06,14,0.30
2018,03,23,06,15,0.30
2018,03,23,06,16,0.30
2018,03,23,06,17,0.30
2018,03,23,06,18,0.30
2018,03,23,06,19,0.30
2018,03,23,06,20,0.30
2018,03,23,06,21,0.30
2018,03,23,06,22,0.30
2018,03,23,06,23,0.30
2018,03,23,06,24,0.30
2018,03,23,06,25,0.30
2018,03,23,06,26,0.40
2018,03,23,06,27,0.40
2018,03,23,06,28,0.40
2018,03,23,06,29,0.40
2018,03,23,06,30,0.40
2018,03,23,06,31,0.40
2018,03,23,06,32,0.40
2018,03,23,06,33,0.50
2018,03,23,06,34,0.50
2018,03,23,06,35,0.50
2018,03,23,06,36,0.60
2018,03,23,06,37,0.60
2018,03,23,06,38,0.60
2018,03,23,06,39,0.60
2018,03,23,06,40,0.60
2018,03,23,06,41,0.60
2018,03,23,06,42,0.60
2018,03,23,06,43,0.60
2018,03,23,06,44,0.60
2018,03,23,06,45,0.60
2018,03,23,06,46,0.60
2018,03,23,06,47,0.60
2018,03,23,06,48,0.60
2018,03,23,06,49,0.60
2018,03,23,06,50,0.60
2018,03,23,06,51,0.50
2018,03,23,06,52,0.50
2018,03,23,06,53,0.50
2018,03,23,06,54,0.50
2018,03,23,06,55,0.40
2018,03,23,06,56,0.40
2018,03,23,06,57,0.40
2018,03,23,06,58,0.40
2018,03,23,06,59,0.40
2018,03,23,07,00,0.40
2018,03,23,07,01,0.40
2018,03,23,07,02,0.40
2018,03,23,07,03,0.40
2018,03,23,07,04,0.30
2018,03,23,07,05,0.30
2018,03,23,07,06,0.30
2018,03,23,07,07,0.30
2018,03,23,07,08,0.30
2018,03,23,07,09,0.30
2018,03,23,07,10,0.30
2018,03,23,07,11,0.20
2018,03,23,07,12,0.20
2018,03,23,07,13,0.20
2018,03,23,07,14,0.20
2018,03,23,07,15,0.20
2018,03,23,07,16,0.20
2018,03,23,07,17,0.20
2018,03,23,07,18,0.20
2018,03,23,07,19,0.20
2018,03,23,07,20,0.20
2018,03,23,07,21,0.20
2018,03,23,07,22,0.20
2018,03,23,07,23,0.20
2018,03,23,07,24,0.20
2018,03,23,07,25,0.20
2018,03,23,07,26,0.20
2018,03,23,07,27,0.10
2018,03,23,07,28,0.10
2018,03,23,07,29,0.10
2018,03,23,07,30,0.10
2018,03,23,07,31,0.10
2018,03,23,07,32,0.10
2018,03,23,07,33,0.10
2018,03,23,07,34,0.10
2018,03,23,07,35,0.10
2018,03,23,07,36,0.10
2018,03,23,07,37,0.10
2018,03,23,07,38,0.10
2018,03,23,07,39,0.00
2018,03,23,07,40,0.00
2018,03,23,07,41,0.00
2018,03,23,07,42,0.00
2018,03,23,07,43,0.00
2018,03,23,07,44,0.00
2018,03,23,07,45,-0.10
2018,03,23,07,46,-0.10
2018,03,23,07,47,-0.10
2018,03,23,07,48,-0.10
2018,03,23,07,49,-0.10
2018,03,23,07,50,-0.10
2018,03,23,07,51,-0.10
2018,03,23,07,52,-0.10
2018,03,23,07,53,-0.20
2018,03,23,07,54,-0.20
2018,03,23,07,55,-0.20
2018,03,23,07,56,-0.20
2018,03,23,07,57,-0.20
2018,03,23,07,58,-0.20
2018,03,23,07,59,-0.20
2018,03,23,08,00,-0.20
2018,03,23,08,01,-0.20
2018,03,23,08,02,-0.20
2018,03,23,08,03,-0.20
2018,03,23,08,04,-0.30
2018,03,23,08,05,-0.30
2018,03,23,08,06,-0.30
2018,03,23,08,07,-0.30
2018,03,23,08,08,-0.30
2018,03,23,08,09,-0.30
2018,03,23,08,10,-0.30
2018,03,23,08,11,-0.30
2018,03,23,08,12,-0.20
2018,03,23,08,13,-0.20
2018,03,23,08,14,-0.20
2018,03,23,08,15,-0.10
2018,03,23,08,16,-0.10
2018,03,23,08,17,-0.10
2018,03,23,08,18,-0.10
2018,03,23,08,19,-0.10
2018,03,23,08,20,-0.10
2018,03,23,08,21,-0.10
2018,03,23,08,22,-0.10
2018,03,23,08,23,-0.10
2018,03,23,08,24,-0.10
2018,03,23,08,25,-0.10
2018,03,23,08,26,-0.10
2018,03,23,08,27,-0.10
2018,03,23,08,28,-0.10
2018,03,23,08,29,-0.10
2018,03,23,08,30,-0.10
2018,03,23,08,31,-0.10
2018,03,23,08,32,-0.10
2018,03,23,08,33,-0.10
2018,03,23,08,34,-0.10
2018,03,23,08,35,-0.10
2018,03,23,08,36,-0.10
2018,03,23,08,37,-0.10
2018,03,23,08,38,-0.10
2018,03,23,08,39,-0.10
2018,03,23,08,40,-0.10
2018,03,23,08,41,-0.10
2018,03,23,08,42,0.00
2018,03,23,08,43,0.00
2018,03,23,08,44,0.00
2018,03,23,08,45,0.10
2018,03,23,08,46,0.10
2018,03,23,08,47,0.20
2018,03,23,08,48,0.20
2018,03,23,08,49,0.20
2018,03,23,08,50,0.30
2018,03,23,08,51,0.40
2018,03,23,08,52,0.50
2018,03,23,08,53,0.50
2018,03,23,08,54,0.70
2018,03,23,08,55,0.80
2018,03,23,08,56,1.00
2018,03,23,08,57,1.10
2018,03,23,08,58,1.30
2018,03,23,08,59,1.50
2018,03,23,09,00,1.70
2018,03,23,09,01,1.90
2018,03,23,09,02,2.00
2018,03,23,09,03,2.20
2018,03,23,09,04,2.30
2018,03,23,09,05,2.50
2018,03,23,09,06,2.60
2018,03,23,09,07,2.70
2018,03,23,09,08,2.80
2018,03,23,09,09,2.90
2018,03,23,09,10,3.00
2018,03,23,09,11,3.10
2018,03,23,09,12,3.20
2018,03,23,09,13,3.40
2018,03,23,09,14,3.50
2018,03,23,09,15,3.60
2018,03,23,09,16,3.60
2018,03,23,09,17,3.70
2018,03,23,09,18,3.80
2018,03,23,09,19,4.00
2018,03,23,09,20,4.10
2018,03,23,09,21,4.20
2018,03,23,09,22,4.20
2018,03,23,09,23,4.30
2018,03,23,09,24,4.30
2018,03,23,09,25,4.30
2018,03,23,09,26,4.30
2018,03,23,09,27,4.30
2018,03,23,09,28,4.40
2018,03,23,09,29,4.40
2018,03,23,09,30,4.40
2018,03,23,09,31,4.50
2018,03,23,09,32,4.50
2018,03,23,09,33,4.60
2018,03,23,09,34,4.60
2018,03,23,09,35,4.70
2018,03,23,09,36,4.80
2018,03,23,09,37,4.90
2018,03,23,09,38,5.00
2018,03,23,09,39,5.10
2018,03,23,09,40,5.10
2018,03,23,09,41,5.10
2018,03,23,09,42,5.10
2018,03,23,09,43,5.20
2018,03,23,09,44,5.30
2018,03,23,09,45,5.30
2018,03,23,09,46,5.30
2018,03,23,09,47,5.20
2018,03,23,09,48,5.20
2018,03,23,09,49,5.20
2018,03,23,09,50,5.20
2018,03,23,09,51,5.10
2018,03,23,09,52,5.10
2018,03,23,09,53,5.00
2018,03,23,09,54,5.00
2018,03,23,09,55,5.00
2018,03,23,09,56,5.00
2018,03,23,09,57,5.00
2018,03,23,09,58,5.10
2018,03,23,09,59,5.10
2018,03,23,10,00,5.10
2018,03,23,10,01,5.20
2018,03,23,10,02,5.30
2018,03,23,10,03,5.30
2018,03,23,10,04,5.40
2018,03,23,10,05,5.50
2018,03,23,10,06,5.60
2018,03,23,10,07,5.60
2018,03,23,10,08,5.70
2018,03,23,10,09,5.70
2018,03,23,10,10,5.70
2018,03,23,10,11,5.60
2018,03,23,10,12,5.60
2018,03,23,10,13,5.60
2018,03,23,10,14,5.60
2018,03,23,10,15,5.60
2018,03,23,10,16,5.60
2018,03,23,10,17,5.60
2018,03,23,10,18,5.60
2018,03,23,10,19,5.60
2018,03,23,10,20,5.60
2018,03,23,10,21,5.60
2018,03,23,10,22,5.50
2018,03,23,10,23,5.60
2018,03,23,10,24,5.60
2018,03,23,10,25,5.70
2018,03,23,10,26,5.80
2018,03,23,10,27,5.90
2018,03,23,10,28,6.00
2018,03,23,10,29,6.20
2018,03,23,10,30,6.30
2018,03,23,10,31,6.40
2018,03,23,10,32,6.50
2018,03,23,10,33,6.50
2018,03,23,10,34,6.50
2018,03,23,10,35,6.50
2018,03,23,10,36,6.50
2018,03,23,10,37,6.40
2018,03,23,10,38,6.40
2018,03,23,10,39,6.30
2018,03,23,10,40,6.30
2018,03,23,10,41,6.30
2018,03,23,10,42,6.30
2018,03,23,10,43,6.20
2018,03,23,10,44,6.20
2018,03,23,10,45,6.10
2018,03,23,10,46,6.20
2018,03,23,10,47,6.20
2018,03,23,10,48,6.40
2018,03,23,10,49,6.50
2018,03,23,10,50,6.50
2018,03,23,10,51,6.50
2018,03,23,10,52,6.50
2018,03,23,10,53,6.50
2018,03,23,10,54,6.50
2018,03,23,10,55,6.50
2018,03,23,10,56,6.60
2018,03,23,10,57,6.60
2018,03,23,10,58,6.60
2018,03,23,10,59,6.70
2018,03,23,11,00,6.70
2018,03,23,11,01,6.70
2018,03,23,11,02,6.70
2018,03,23,11,03,6.60
2018,03,23,11,04,6.60
2018,03,23,11,05,6.50
2018,03,23,11,06,6.40
2018,03,23,11,07,6.40
2018,03,23,11,08,6.40
2018,03,23,11,09,6.30
2018,03,23,11,10,6.30
2018,03,23,11,11,6.30
2018,03,23,11,12,6.30
2018,03,23,11,13,6.30
2018,03,23,11,14,6.20
2018,03,23,11,15,6.10
2018,03,23,11,16,6.10
2018,03,23,11,17,6.00
2018,03,23,11,18,5.90
2018,03,23,11,19,5.90
2018,03,23,11,20,5.90
2018,03,23,11,21,5.90
2018,03,23,11,22,5.90
2018,03,23,11,23,5.80
2018,03,23,11,24,5.80
2018,03,23,11,25,5.70
2018,03,23,11,26,5.60
2018,03,23,11,27,5.60
2018,03,23,11,28,5.60
2018,03,23,11,29,5.50
2018,03,23,11,30,5.50
2018,03,23,11,31,5.50
2018,03,23,11,32,5.40
2018,03,23,11,33,5.40
2018,03,23,11,34,5.40
2018,03,23,11,35,5.40
2018,03,23,11,36,5.40
2018,03,23,11,37,5.40
2018,03,23,11,38,5.40
2018,03,23,11,39,5.40
2018,03,23,11,40,5.40
2018,03,23,11,41,5.30
2018,03,23,11,42,5.30
2018,03,23,11,43,5.30
2018,03,23,11,44,5.30
2018,03,23,11,45,5.30
2018,03,23,11,46,5.30
2018,03,23,11,47,5.40
2018,03,23,11,48,5.40
2018,03,23,11,49,5.40
2018,03,23,11,50,5.40
2018,03,23,11,51,5.40
2018,03,23,11,52,5.40
2018,03,23,11,53,5.40
2018,03,23,11,54,5.40
2018,03,23,11,55,5.50
2018,03,23,11,56,5.50
2018,03,23,11,57,5.60
2018,03,23,11,58,5.60
2018,03,23,11,59,5.70
2018,03,23,12,00,5.70
2018,03,23,12,01,5.80
2018,03,23,12,02,5.80
2018,03,23,12,03,5.90
2018,03,23,12,04,6.00
2018,03,23,12,05,6.00
2018,03,23,12,06,6.10
2018,03,23,12,07,6.20
2018,03,23,12,08,6.30
2018,03,23,12,09,6.40
2018,03,23,12,10,6.50
2018,03,23,12,11,6.50
2018,03,23,12,12,6.60
2018,03,23,12,13,6.60
2018,03,23,12,14,6.70
2018,03,23,12,15,6.70
2018,03,23,12,16,6.70
2018,03,23,12,17,6.70
2018,03,23,12,18,6.80
2018,03,23,12,19,6.80
2018,03,23,12,20,6.80
2018,03,23,12,21,6.80
2018,03,23,12,22,6.80
2018,03,23,12,23,6.80
2018,03,23,12,24,6.80
2018,03,23,12,25,6.80
2018,03,23,12,26,6.80
2018,03,23,12,27,6.80
2018,03,23,12,28,6.80
2018,03,23,12,29,6.90
2018,03,23,12,30,6.90
2018,03,23,12,31,6.80
2018,03,23,12,32,6.80
2018,03,23,12,33,6.80
2018,03,23,12,34,6.80
2018,03,23,12,35,6.80
2018,03,23,12,36,6.80
2018,03,23,12,37,6.80
2018,03,23,12,38,6.80
2018,03,23,12,39,6.80
2018,03,23,12,40,6.70
2018,03,23,12,41,6.70
2018,03,23,12,42,6.70
2018,03,23,12,43,6.70
2018,03,23,12,44,6.70
2018,03,23,12,45,6.70
2018,03,23,12,46,6.70
2018,03,23,12,47,6.70
2018,03,23,12,48,6.70
2018,03,23,12,49,6.70
2018,03,23,12,50,6.60
2018,03,23,12,51,6.60
2018,03,23,12,52,6.50
2018,03,23,12,53,6.50
2018,03,23,12,54,6.40
2018,03,23,12,55,6.40
2018,03,23,12,56,6.30
2018,03,23,12,57,6.30
2018,03,23,12,58,6.30
2018,03,23,12,59,6.20
2018,03,23,13,00,6.20
2018,03,23,13,01,6.20
2018,03,23,13,02,6.20
2018,03,23,13,03,6.20
2018,03,23,13,04,6.20
2018,03,23,13,05,6.20
2018,03,23,13,06,6.20
2018,03,23,13,07,6.20
2018,03,23,13,08,6.20
2018,03,23,13,09,6.20
2018,03,23,13,10,6.20
2018,03,23,13,11,6.20
2018,03,23,13,12,6.20
2018,03,23,13,13,6.20
2018,03,23,13,14,6.20
2018,03,23,13,15,6.20
2018,03,23,13,16,6.30
2018,03,23,13,17,6.30
2018,03,23,13,18,6.30
2018,03,23,13,19,6.30
2018,03,23,13,20,6.30
2018,03,23,13,21,6.30
2018,03,23,13,22,6.20
2018,03,23,13,23,6.20
2018,03,23,13,24,6.20
2018,03,23,13,25,6.20
2018,03,23,13,26,6.20
2018,03,23,13,27,6.10
2018,03,23,13,28,6.10
2018,03,23,13,29,6.10
2018,03,23,13,30,6.10
2018,03,23,13,31,6.10
2018,03,23,13,32,6.10
2018,03,23,13,33,6.10
2018,03,23,13,34,6.00
2018,03,23,13,35,6.00
2018,03,23,13,36,6.00
2018,03,23,13,37,6.00
2018,03,23,13,38,6.00
2018,03,23,13,39,6.10
2018,03,23,13,40,6.10
2018,03,23,13,41,6.00
2018,03,23,13,42,6.00
2018,03,23,13,43,6.00
2018,03,23,13,44,5.90
2018,03,23,13,45,5.90
2018,03,23,13,46,5.90
2018,03,23,13,47,5.90
2018,03,23,13,48,5.90
2018,03,23,13,49,5.90
2018,03,23,13,50,5.90
2018,03,23,13,51,5.80
2018,03,23,13,52,5.80
2018,03,23,13,53,5.80
2018,03,23,13,54,5.70
2018,03,23,13,55,5.70
2018,03,23,13,56,5.70
2018,03,23,13,57,5.70
2018,03,23,13,58,5.70
2018,03,23,13,59,5.70
2018,03,23,14,00,5.70
2018,03,23,14,01,5.70
2018,03,23,14,02,5.70
2018,03,23,14,03,5.70
2018,03,23,14,04,5.70
2018,03,23,14,05,5.70
2018,03,23,14,06,5.70
2018,03,23,14,07,5.70
2018,03,23,14,08,5.70
2018,03,23,14,09,5.70
2018,03,23,14,10,5.60
2018,03,23,14,11,5.60
2018,03,23,14,12,5.60
2018,03,23,14,13,5.60
2018,03,23,14,14,5.60
2018,03,23,14,15,5.60
2018,03,23,14,16,5.60
2018,03,23,14,17,5.60
2018,03,23,14,18,5.50
2018,03,23,14,19,5.50
2018,03,23,14,20,5.60
2018,03,23,14,21,5.60
2018,03,23,14,22,5.60
2018,03,23,14,23,5.60
2018,03,23,14,24,5.70
2018,03,23,14,25,5.70
2018,03,23,14,26,5.70
2018,03,23,14,27,5.70
2018,03,23,14,28,5.70
2018,03,23,14,29,5.70
2018,03,23,14,30,5.70
2018,03,23,14,31,5.70
2018,03,23,14,32,5.70
2018,03,23,14,33,5.70
2018,03,23,14,34,5.70
2018,03,23,14,35,5.80
2018,03,23,14,36,5.80
2018,03,23,14,37,5.90
2018,03,23,14,38,6.00
2018,03,23,14,39,6.20
2018,03,23,14,40,6.30
2018,03,23,14,41,6.30
2018,03,23,14,42,6.40
2018,03,23,14,43,6.40
2018,03,23,14,44,6.40
2018,03,23,14,45,6.40
2018,03,23,14,46,6.30
2018,03,23,14,47,6.30
2018,03,23,14,48,6.20
2018,03,23,14,49,6.10
2018,03,23,14,50,6.10
2018,03,23,14,51,6.10
2018,03,23,14,52,6.10
2018,03,23,14,53,6.00
2018,03,23,14,54,6.10
2018,03,23,14,55,6.10
2018,03,23,14,56,6.10
2018,03,23,14,57,6.10
2018,03,23,14,58,6.10
2018,03,23,14,59,6.10
2018,03,23,15,00,6.10
2018,03,23,15,01,6.10
2018,03,23,15,02,6.10
2018,03,23,15,03,6.10
2018,03,23,15,04,6.20
2018,03,23,15,05,6.20
2018,03,23,15,06,6.20
2018,03,23,15,07,6.20
2018,03,23,15,08,6.20
2018,03,23,15,09,6.20
2018,03,23,15,10,6.20
2018,03,23,15,11,6.20
2018,03,23,15,12,6.20
2018,03,23,15,13,6.10
2018,03,23,15,14,6.10
2018,03,23,15,15,6.10
2018,03,23,15,16,6.10
2018,03,23,15,17,6.10
2018,03,23,15,18,6.00
2018,03,23,15,19,6.00
2018,03,23,15,20,6.00
2018,03,23,15,21,6.00
2018,03,23,15,22,6.00
2018,03,23,15,23,6.00
2018,03,23,15,24,6.00
2018,03,23,15,25,6.10
2018,03,23,15,26,6.10
2018,03,23,15,27,6.10
2018,03,23,15,28,6.10
2018,03,23,15,29,6.00
2018,03,23,15,30,6.00
2018,03,23,15,31,6.00
2018,03,23,15,32,6.00
2018,03,23,15,33,6.00
2018,03,23,15,34,6.00
2018,03,23,15,35,6.00
2018,03,23,15,36,6.00
2018,03,23,15,37,6.00
2018,03,23,15,38,6.00
2018,03,23,15,39,6.00
2018,03,23,15,40,6.00
2018,03,23,15,41,6.00
2018,03,23,15,42,6.10
2018,03,23,15,43,6.10
2018,03,23,15,44,6.10
2018,03,23,15,45,6.10
2018,03,23,15,46,6.10
2018,03,23,15,47,6.10
2018,03,23,15,48,6.10
2018,03,23,15,49,6.10
2018,03,23,15,50,6.20
2018,03,23,15,51,6.20
2018,03,23,15,52,6.20
2018,03,23,15,53,6.20
2018,03,23,15,54,6.20
2018,03,23,15,55,6.20
2018,03,23,15,56,6.10
2018,03,23,15,57,6.00
2018,03,23,15,58,5.90
2018,03,23,15,59,5.80
2018,03,23,16,00,5.70
2018,03,23,16,01,5.60
2018,03,23,16,02,5.50
2018,03,23,16,03,5.50
2018,03,23,16,04,5.40
2018,03,23,16,05,5.40
2018,03,23,16,06,5.30
2018,03,23,16,07,5.30
2018,03,23,16,08,5.30
2018,03,23,16,09,5.30
2018,03,23,16,10,5.30
2018,03,23,16,11,5.30
2018,03,23,16,12,5.30
2018,03,23,16,13,5.30
2018,03,23,16,14,5.40
2018,03,23,16,15,5.40
2018,03,23,16,16,5.40
2018,03,23,16,17,5.40
2018,03,23,16,18,5.40
2018,03,23,16,19,5.40
2018,03,23,16,20,5.40
2018,03,23,16,21,5.40
2018,03,23,16,22,5.50
2018,03,23,16,23,5.50
2018,03,23,16,24,5.50
2018,03,23,16,25,5.50
2018,03,23,16,26,5.50
2018,03,23,16,27,5.50
2018,03,23,16,28,5.50
2018,03,23,16,29,5.50
2018,03,23,16,30,5.50
2018,03,23,16,31,5.50
2018,03,23,16,32,5.40
2018,03,23,16,33,5.40
2018,03,23,16,34,5.40
2018,03,23,16,35,5.40
2018,03,23,16,36,5.40
2018,03,23,16,37,5.30
2018,03,23,16,38,5.30
2018,03,23,16,39,5.30
2018,03,23,16,40,5.20
2018,03,23,16,41,5.20
2018,03,23,16,42,5.10
2018,03,23,16,43,5.10
2018,03,23,16,44,5.10
2018,03,23,16,45,5.10
2018,03,23,16,46,5.10
2018,03,23,16,47,5.10
2018,03,23,16,48,5.00
2018,03,23,16,49,5.00
2018,03,23,16,50,5.00
2018,03,23,16,51,5.00
2018,03,23,16,52,5.00
2018,03,23,16,53,5.00
2018,03,23,16,54,5.00
2018,03,23,16,55,5.00
2018,03,23,16,56,5.00
2018,03,23,16,57,5.00
2018,03,23,16,58,5.00
2018,03,23,16,59,5.00
2018,03,23,17,00,5.00
2018,03,23,17,01,5.00
2018,03,23,17,02,4.90
2018,03,23,17,03,4.90
2018,03,23,17,04,4.90
2018,03,23,17,05,4.90
2018,03,23,17,06,4.90
2018,03,23,17,07,5.00
2018,03,23,17,08,5.00
2018,03,23,17,09,5.10
2018,03,23,17,10,5.10
2018,03,23,17,11,5.10
2018,03,23,17,12,5.10
2018,03,23,17,13,5.20
2018,03,23,17,14,5.20
2018,03,23,17,15,5.20
2018,03,23,17,16,5.30
2018,03,23,17,17,5.30
2018,03,23,17,18,5.30
2018,03,23,17,19,5.30
2018,03,23,17,20,5.30
2018,03,23,17,21,5.40
2018,03,23,17,22,5.40
2018,03,23,17,23,5.40
2018,03,23,17,24,5.40
2018,03,23,17,25,5.40
2018,03,23,17,26,5.40
2018,03,23,17,27,5.50
2018,03,23,17,28,5.50
2018,03,23,17,29,5.50
2018,03,23,17,30,5.40
2018,03,23,17,31,5.40
2018,03,23,17,32,5.40
2018,03,23,17,33,5.40
2018,03,23,17,34,5.40
2018,03,23,17,35,5.40
2018,03,23,17,36,5.30
2018,03,23,17,37,5.30
2018,03,23,17,38,5.30
2018,03,23,17,39,5.30
2018,03,23,17,40,5.30
2018,03,23,17,41,5.30
2018,03,23,17,42,5.30
2018,03,23,17,43,5.20
2018,03,23,17,44,5.20
2018,03,23,17,45,5.20
2018,03,23,17,46,5.20
2018,03,23,17,47,5.10
2018,03,23,17,48,5.10
2018,03,23,17,49,5.10
2018,03,23,17,50,5.10
2018,03,23,17,51,5.10
2018,03,23,17,52,5.10
2018,03,23,17,53,5.10
2018,03,23,17,54,5.10
2018,03,23,17,55,5.10
2018,03,23,17,56,5.00
2018,03,23,17,57,5.00
2018,03,23,17,58,5.00
2018,03,23,17,59,5.00
2018,03,23,18,00,4.90
2018,03,23,18,01,4.90
2018,03,23,18,02,4.90
2018,03,23,18,03,4.90
2018,03,23,18,04,4.80